TimeEST,TemperatureF,Dew PointF,Humidity,Sea Level PressureIn,VisibilityMPH,Wind Direction,Wind SpeedMPH,Gust SpeedMPH,PrecipitationIn,Events,Conditions,WindDirDegrees,DateUTC
12:15 AM,33.8,26.6,75,29.69,10.0,NNW,24.2,32.2,N/A,,Mostly Cloudy,330,2013-03-05 05:15:00
12:35 AM,33.8,26.6,75,29.70,10.0,NNW,23.0,29.9,N/A,,Overcast,330,2013-03-05 05:35:00
12:55 AM,33.8,26.6,75,29.71,10.0,NW,18.4,32.2,N/A,,Overcast,320,2013-03-05 05:55:00
1:15 AM,33.8,30.2,87,29.71,10.0,NNW,24.2,28.8,N/A,,Overcast,330,2013-03-05 06:15:00
2:35 AM,33.8,28.4,81,29.73,10.0,NNW,24.2,29.9,N/A,,Overcast,330,2013-03-05 07:35:00
2:55 AM,33.8,26.6,75,29.74,10.0,NNW,21.9,29.9,N/A,,Overcast,330,2013-03-05 07:55:00
3:15 AM,35.6,28.4,75,29.75,10.0,NNW,23.0,29.9,N/A,,Overcast,330,2013-03-05 08:15:00
3:35 AM,35.6,28.4,75,29.76,10.0,NNW,23.0,29.9,N/A,,Overcast,330,2013-03-05 08:35:00
3:55 AM,35.6,26.6,70,29.77,10.0,NNW,17.3,28.8,N/A,,Overcast,330,2013-03-05 08:55:00
4:15 AM,35.6,28.4,75,29.78,10.0,NNW,20.7,28.8,N/A,,Overcast,340,2013-03-05 09:15:00
4:55 AM,35.6,26.6,70,29.79,10.0,NNW,18.4,29.9,N/A,,Overcast,340,2013-03-05 09:55:00
5:15 AM,35.6,28.4,75,29.80,10.0,NNW,21.9,27.6,N/A,,Mostly Cloudy,340,2013-03-05 10:15:00
5:55 AM,35.6,28.4,75,29.81,10.0,NNW,19.6,25.3,N/A,,Overcast,340,2013-03-05 10:55:00
6:15 AM,35.6,30.2,81,29.82,10.0,NNW,20.7,26.5,N/A,,Overcast,340,2013-03-05 11:15:00
6:35 AM,37.4,30.2,75,29.83,10.0,NNW,21.9,26.5,N/A,,Overcast,340,2013-03-05 11:35:00
7:15 AM,35.6,30.2,81,29.86,10.0,NNW,17.3,25.3,N/A,,Overcast,340,2013-03-05 12:15:00
8:35 AM,35.6,33.8,93,29.89,10.0,NNW,18.4,25.3,N/A,,Overcast,340,2013-03-05 13:35:00
8:55 AM,35.6,33.8,93,29.89,8.0,NNW,18.4,24.2,N/A,,Overcast,340,2013-03-05 13:55:00
9:35 AM,37.4,33.8,87,29.90,10.0,North,16.1,23.0,N/A,,Overcast,350,2013-03-05 14:35:00
9:55 AM,37.4,35.6,93,29.90,10.0,North,15.0,24.2,N/A,,Overcast,360,2013-03-05 14:55:00
10:15 AM,37.4,33.8,87,29.90,10.0,North,17.3,21.9,N/A,,Overcast,360,2013-03-05 15:15:00
10:35 AM,37.4,35.6,93,29.91,10.0,North,15.0,21.9,N/A,,Overcast,350,2013-03-05 15:35:00
10:55 AM,39.2,35.6,87,29.91,10.0,North,13.8,23.0,N/A,,Overcast,360,2013-03-05 15:55:00
11:15 AM,39.2,33.8,81,29.92,10.0,North,13.8,20.7,N/A,,Overcast,10,2013-03-05 16:15:00
11:35 AM,39.2,35.6,87,29.93,9.0,North,17.3,20.7,N/A,,Overcast,360,2013-03-05 16:35:00
12:15 PM,39.2,35.6,87,29.94,7.0,North,13.8,20.7,N/A,,Overcast,10,2013-03-05 17:15:00
12:35 PM,39.2,35.6,87,29.94,10.0,NNE,17.3,20.7,N/A,,Overcast,20,2013-03-05 17:35:00
12:55 PM,39.2,35.6,87,29.94,9.0,North,12.7,20.7,N/A,,Overcast,10,2013-03-05 17:55:00
1:15 PM,39.2,35.6,87,29.94,10.0,North,12.7,23.0,N/A,,Mostly Cloudy,10,2013-03-05 18:15:00
1:35 PM,41.0,35.6,81,29.95,10.0,North,17.3,21.9,N/A,,Mostly Cloudy,10,2013-03-05 18:35:00
1:55 PM,41.0,35.6,81,29.96,10.0,North,15.0,18.4,N/A,,Overcast,10,2013-03-05 18:55:00
2:35 PM,39.2,33.8,81,29.97,10.0,NNE,12.7,20.7,N/A,,Overcast,20,2013-03-05 19:35:00
2:55 PM,41.0,35.6,81,29.97,10.0,NNE,15.0,21.9,N/A,,Overcast,20,2013-03-05 19:55:00
3:15 PM,41.0,35.6,81,29.98,10.0,NNE,16.1,21.9,N/A,,Overcast,20,2013-03-05 20:15:00
3:35 PM,41.0,33.8,76,29.98,10.0,NNE,17.3,21.9,N/A,,Overcast,20,2013-03-05 20:35:00
3:55 PM,41.0,33.8,76,29.99,10.0,NNE,15.0,21.9,N/A,,Overcast,30,2013-03-05 20:55:00
4:15 PM,39.2,35.6,87,30.00,10.0,NNE,11.5,18.4,N/A,,Mostly Cloudy,30,2013-03-05 21:15:00
4:35 PM,39.2,35.6,87,30.01,10.0,NNE,11.5,-,N/A,,Mostly Cloudy,20,2013-03-05 21:35:00
5:15 PM,39.2,33.8,81,30.02,10.0,NE,13.8,20.7,N/A,,Mostly Cloudy,40,2013-03-05 22:15:00
5:35 PM,39.2,33.8,81,30.01,10.0,NNE,11.5,-,N/A,,Scattered Clouds,30,2013-03-05 22:35:00
5:55 PM,39.2,32.0,75,30.02,10.0,NE,12.7,-,N/A,,Partly Cloudy,40,2013-03-05 22:55:00
6:15 PM,39.2,33.8,81,30.02,10.0,NE,10.4,-,N/A,,Clear,40,2013-03-05 23:15:00
6:35 PM,37.4,33.8,87,30.03,10.0,NE,9.2,-,N/A,,Clear,50,2013-03-05 23:35:00
6:55 PM,39.2,35.6,87,30.03,10.0,NE,10.4,-,N/A,,Mostly Cloudy,40,2013-03-05 23:55:00
7:35 PM,39.2,35.6,87,30.04,10.0,NNE,10.4,-,N/A,,Overcast,30,2013-03-06 00:35:00
7:55 PM,39.2,33.8,81,30.05,10.0,NE,12.7,-,N/A,,Overcast,40,2013-03-06 00:55:00
8:15 PM,39.2,33.8,81,30.05,10.0,NNE,15.0,-,N/A,,Mostly Cloudy,30,2013-03-06 01:15:00
8:35 PM,39.2,35.6,87,30.04,10.0,NE,9.2,-,N/A,,Overcast,40,2013-03-06 01:35:00
8:55 PM,39.2,35.6,87,30.04,10.0,NNE,8.1,-,N/A,,Mostly Cloudy,20,2013-03-06 01:55:00
9:15 PM,39.2,35.6,87,30.04,10.0,NNE,6.9,-,N/A,,Scattered Clouds,20,2013-03-06 02:15:00
9:55 PM,39.2,35.6,87,30.03,10.0,NNE,6.9,-,N/A,,Mostly Cloudy,30,2013-03-06 02:55:00
10:15 PM,39.2,35.6,87,30.03,10.0,NE,5.8,-,N/A,,Mostly Cloudy,40,2013-03-06 03:15:00
10:55 PM,39.2,35.6,87,30.04,10.0,NNE,6.9,-,N/A,,Scattered Clouds,20,2013-03-06 03:55:00
11:15 PM,39.2,35.6,87,30.05,10.0,North,9.2,-,N/A,,Mostly Cloudy,10,2013-03-06 04:15:00
11:35 PM,39.2,35.6,87,30.06,10.0,ENE,6.9,-,N/A,,Overcast,60,2013-03-06 04:35:00